TimeCDT,TemperatureF,Dew PointF,Humidity,Sea Level PressureIn,VisibilityMPH,Wind Direction,Wind SpeedMPH,Gust SpeedMPH,PrecipitationIn,Events,Conditions,WindDirDegrees,DateUTC
12:19 AM,62.6,55.4,77,29.91,10.0,ENE,9.2,-,0.00,Rain,Light Rain,60,2013-03-19 05:19:00
12:56 AM,61.0,55.0,81,29.89,10.0,ESE,5.8,-,0.00,,Partly Cloudy,120,2013-03-19 05:56:00
1:56 AM,61.0,55.9,83,29.93,10.0,Calm,Calm,-,N/A,,Overcast,0,2013-03-19 06:56:00
2:56 AM,61.0,55.0,81,29.93,10.0,North,9.2,17.3,N/A,,Mostly Cloudy,360,2013-03-19 07:56:00
3:56 AM,60.1,55.0,83,29.95,10.0,North,10.4,-,N/A,,Overcast,10,2013-03-19 08:56:00
4:17 AM,60.8,55.4,82,29.95,10.0,North,10.4,-,N/A,,Overcast,360,2013-03-19 09:17:00
4:56 AM,59.0,54.0,83,29.97,10.0,North,13.8,19.6,N/A,,Overcast,360,2013-03-19 09:56:00
5:56 AM,57.9,53.1,84,29.99,7.0,North,13.8,-,N/A,,Overcast,10,2013-03-19 10:56:00
6:06 AM,57.2,53.6,88,30.00,7.0,North,10.4,-,N/A,,Overcast,10,2013-03-19 11:06:00
6:56 AM,55.9,50.0,80,30.01,7.0,North,16.1,-,N/A,,Overcast,10,2013-03-19 11:56:00
7:27 AM,55.4,50.0,82,30.03,7.0,North,15.0,-,N/A,,Overcast,10,2013-03-19 12:27:00
7:56 AM,55.9,48.9,77,30.04,7.0,North,9.2,-,N/A,,Overcast,10,2013-03-19 12:56:00
8:56 AM,57.9,48.9,72,30.04,7.0,NNE,11.5,-,N/A,,Mostly Cloudy,30,2013-03-19 13:56:00
9:56 AM,61.0,48.0,62,30.04,10.0,ENE,8.1,-,N/A,,Partly Cloudy,60,2013-03-19 14:56:00
10:56 AM,64.9,46.0,50,30.05,10.0,North,10.4,17.3,N/A,,Clear,10,2013-03-19 15:56:00
11:56 AM,69.1,44.1,40,30.04,10.0,ENE,9.2,-,N/A,,Clear,70,2013-03-19 16:56:00
12:56 PM,71.1,45.0,39,30.03,10.0,Variable,6.9,-,N/A,,Clear,0,2013-03-19 17:56:00
1:56 PM,73.9,45.0,35,30.00,10.0,NE,9.2,-,N/A,,Partly Cloudy,40,2013-03-19 18:56:00
2:56 PM,75.0,43.0,32,29.99,10.0,Calm,Calm,-,N/A,,Scattered Clouds,0,2013-03-19 19:56:00
3:56 PM,77.0,43.0,30,29.97,10.0,Variable,5.8,-,N/A,,Scattered Clouds,0,2013-03-19 20:56:00
4:56 PM,77.0,43.0,30,29.95,10.0,NE,8.1,-,N/A,,Scattered Clouds,40,2013-03-19 21:56:00
5:56 PM,75.9,44.1,32,29.95,10.0,NE,6.9,-,N/A,,Scattered Clouds,40,2013-03-19 22:56:00
6:56 PM,71.1,43.0,36,29.98,10.0,NNE,8.1,-,N/A,,Scattered Clouds,20,2013-03-19 23:56:00
7:56 PM,66.0,43.0,43,29.99,10.0,NNE,5.8,-,N/A,,Scattered Clouds,20,2013-03-20 00:56:00
8:56 PM,64.9,41.0,42,30.00,10.0,NNE,9.2,-,N/A,,Partly Cloudy,20,2013-03-20 01:56:00
9:56 PM,60.1,39.9,47,30.02,10.0,East,4.6,-,N/A,,Partly Cloudy,80,2013-03-20 02:56:00
10:56 PM,57.9,41.0,53,30.03,10.0,NE,3.5,-,N/A,,Scattered Clouds,40,2013-03-20 03:56:00
11:56 PM,57.9,39.9,51,30.02,10.0,NNE,5.8,-,N/A,,Clear,30,2013-03-20 04:56:00